This is the latest recevied weather packets stored in our database for station/object EA1EXV-11. If no packets are shown the sender has not sent any weather packets the latest 10 day(s).
| Time | Temp. | Humidity | Pressure | Rain* | Wind** | Luminosity | Snow |
|---|---|---|---|---|---|---|---|
| 1777611901 | 11.11° C | 79% | 1019.6 hPa | - | - | - | - |
| 1777611001 | 11.11° C | 79% | 1019.5 hPa | - | - | - | - |
| 1777610101 | 11.11° C | 79% | 1019.7 hPa | - | - | - | - |
| 1777609201 | 10.56° C | 78% | 1019.7 hPa | - | - | - | - |
| 1777608301 | 10° C | 78% | 1019.7 hPa | - | - | - | - |
| 1777607402 | 10° C | 78% | 1019.8 hPa | - | - | - | - |
| 1777606500 | 10° C | 77% | 1020 hPa | - | - | - | - |
| 1777605600 | 10° C | 77% | 1019.9 hPa | - | - | - | - |
| 1777604700 | 10.56° C | 77% | 1019.9 hPa | - | - | - | - |
| 1777603800 | 10.56° C | 76% | 1019.8 hPa | - | - | - | - |
| 1777602900 | 10° C | 76% | 1019.7 hPa | - | - | - | - |
| 1777602000 | 10.56° C | 76% | 1019.7 hPa | - | - | - | - |
| 1777601100 | 11.11° C | 75% | 1019.9 hPa | - | - | - | - |
| 1777600200 | 11.11° C | 75% | 1020 hPa | - | - | - | - |
| 1777599300 | 11.11° C | 74% | 1020 hPa | - | - | - | - |
| 1777598399 | 11.11° C | 74% | 1020.2 hPa | - | - | - | - |
| 1777597499 | 11.11° C | 73% | 1020.3 hPa | - | - | - | - |
| 1777596599 | 11.11° C | 73% | 1020.4 hPa | - | - | - | - |
| 1777595699 | 11.11° C | 72% | 1020.3 hPa | - | - | - | - |
| 1777594799 | 11.11° C | 71% | 1020.4 hPa | - | - | - | - |
| 1777593899 | 11.67° C | 70% | 1020.5 hPa | - | - | - | - |
| 1777592999 | 12.22° C | 70% | 1020.4 hPa | - | - | - | - |
| 1777592099 | 12.22° C | 69% | 1020.3 hPa | - | - | - | - |
| 1777591199 | 12.22° C | 69% | 1020.1 hPa | - | - | - | - |
| 1777590298 | 12.22° C | 68% | 1020.1 hPa | - | - | - | - |
* Rain since midnight (hover to see other rain measurements)
** Current wind speed in m/s (hover to see current wind gust speed)